This is the latest recevied weather packets stored in our database for station/object WA1OUI. If no packets are shown the sender has not sent any weather packets the latest 10 day(s).
| Time | Temp. | Humidity | Pressure | Rain* | Wind** | Luminosity | Snow |
|---|---|---|---|---|---|---|---|
| 1777619090 | 5.56° C | 85% | 1008.1 hPa | 0 mm | - | 0 W/m² | - |
| 1777618790 | 5.56° C | 86% | 1008 hPa | 0 mm | - | 0 W/m² | - |
| 1777618485 | 5.56° C | 85% | 1008.1 hPa | 0 mm | - | 0 W/m² | - |
| 1777618182 | 5.56° C | 84% | 1008.1 hPa | 0 mm | - | 0 W/m² | - |
| 1777617879 | 5.56° C | 83% | 1008 hPa | 0 mm | - | 0 W/m² | - |
| 1777617574 | 6.11° C | 82% | 1008.1 hPa | 0 mm | - | 0 W/m² | - |
| 1777617271 | 6.11° C | 82% | 1007.9 hPa | 0 mm | - | 0 W/m² | - |
| 1777616968 | 6.11° C | 82% | 1008 hPa | 0 mm | - | 0 W/m² | - |
| 1777616663 | 6.11° C | 82% | 1008 hPa | 0 mm | - | 0 W/m² | - |
| 1777616358 | 6.67° C | 81% | 1008.2 hPa | 0 mm | - | 0 W/m² | - |
| 1777616055 | 6.67° C | 80% | 1007.9 hPa | 0 mm | - | 0 W/m² | - |
| 1777615752 | 6.67° C | 81% | 1007.9 hPa | 0 mm | - | 0 W/m² | - |
| 1777615449 | 6.67° C | 81% | 1007.9 hPa | 0 mm | - | 0 W/m² | - |
| 1777615148 | 6.67° C | 80% | 1007.8 hPa | 0 mm | - | 0 W/m² | - |
| 1777614844 | 6.67° C | 81% | 1007.8 hPa | 0 mm | - | 0 W/m² | - |
| 1777614541 | 6.67° C | 76% | 1007.8 hPa | 0 mm | - | 0 W/m² | - |
| 1777614236 | 7.22° C | 78% | 1007.7 hPa | 0 mm | - | 0 W/m² | - |
| 1777613931 | 7.22° C | 77% | 1007.7 hPa | 0 mm | - | 0 W/m² | - |
| 1777613628 | 7.22° C | 78% | 1008 hPa | 0 mm | - | 0 W/m² | - |
| 1777613325 | 7.22° C | 76% | 1008 hPa | 0 mm | - | 0 W/m² | - |
| 1777613022 | 7.22° C | 75% | 1008 hPa | 0 mm | - | 0 W/m² | - |
| 1777612718 | 7.22° C | 77% | 1008.2 hPa | 0 mm | - | 0 W/m² | - |
| 1777612414 | 7.22° C | 76% | 1008.1 hPa | 0 mm | - | 0 W/m² | - |
| 1777612109 | 7.22° C | 77% | 1008 hPa | 0 mm | - | 0 W/m² | - |
| 1777611805 | 7.22° C | 75% | 1008.1 hPa | 0 mm | - | 0 W/m² | - |
* Rain latest hour (hover to see other rain measurements)
** Current wind speed in m/s (hover to see current wind gust speed)